Flag for Norway Weather past 2 weeks in Asker, Norway

Now
45 °F

Passing clouds.


Feels Like: 36 °F
Forecast: 37 / 49 °F
Wind: 24 mph from Southwest

Location: Oslo / Fornebu

Current Time: Mar 6, 2015 at 5:53:17 AM

Latest Report: Mar 6, 2015 at 5:20 AM


Visibility: N/A

Pressure: 30.04 "Hg

Humidity: 71%

Dew point: 36 °F

Location of AskerLocation

Historic Weather in Asker — Graph

°F

Asker temperature yesterday

Maximum temperature yesterday: 46 °F (at 10:50 AM)
Minimum temperature yesterday: 41 °F (at 1:50 AM)
Average temperature yesterday: 44 °F

Past Weeks' High & Low Weather Summary

 TemperatureHumidityPressure
High48 °F (Feb 19, 7:20 AM)100% (Feb 19, 5:50 AM)30.15 "Hg (Feb 19, 5:50 AM)
Low34 °F (Feb 22, 6:50 AM)53% (Mar 2, 1:20 PM)28.44 "Hg (Mar 1, 12:20 PM)
Average42 °F78%29.26 "Hg
* Reported Feb 19 5:50 AM — Mar 6 4:50 AM, Asker, Weather by CustomWeather, © 2015

Note: Actual official high and low records may vary slightly from our data, if they occured in-between our weather recording intervals... More about our weather records

Advertising

Asker weather history for previous 24 hours

 ConditionsComfort  
Time TempWeatherWind HumidityBarometerVisibility
4:50 AM
Fri, Mar 6
45 °FPassing clouds.25 mph71%30.04 "HgN/A
4:20 AM45 °FPassing clouds.23 mph76%30.04 "HgN/A
3:50 AM45 °FQuite cool.28 mph71%30.04 "HgN/A
3:20 AM45 °FQuite cool.24 mph71%30.04 "HgN/A
2:50 AM45 °FPassing clouds.26 mph76%30.04 "HgN/A
2:20 AM45 °FPassing clouds.32 mph71%30.04 "HgN/A
1:50 AM45 °FPassing clouds.31 mph71%30.04 "HgN/A
1:20 AM45 °FPassing clouds.33 mph76%30.04 "HgN/A
12:50 AM45 °FPassing clouds.36 mph71%30.01 "HgN/A
12:20 AM45 °FPassing clouds.31 mph71%30.01 "HgN/A
11:50 PM
Thu, Mar 5
45 °FPassing clouds.32 mph76%30.01 "HgN/A
11:20 PM45 °FSprinkles. Partly cloudy.31 mph71%30.01 "HgN/A
10:50 PM45 °FPassing clouds.33 mph76%30.01 "HgN/A
10:20 PM45 °FPartly cloudy.32 mph81%29.98 "HgN/A
9:50 PM43 °FSprinkles. Passing clouds.32 mph76%29.98 "HgN/A
9:20 PM43 °FLight rain. Fog.41 mph76%29.98 "Hg2 mi
8:50 PM46 °FPartly cloudy.30 mph76%29.98 "HgN/A
8:20 PM46 °FCool.36 mph76%29.95 "HgN/A
7:50 PM46 °FCool.39 mph82%29.95 "HgN/A
7:20 PM46 °FPassing clouds.37 mph82%29.95 "HgN/A
6:50 PM46 °FPassing clouds.41 mph82%29.95 "HgN/A
6:20 PM46 °FPassing clouds.37 mph82%29.92 "HgN/A
5:50 PM46 °FBroken clouds.37 mph87%29.92 "HgN/A
5:20 PM46 °FPartly sunny.37 mph87%29.92 "HgN/A
4:50 PM46 °FPartly sunny.37 mph87%29.92 "HgN/A
4:20 PM46 °FPartly sunny.44 mph87%29.89 "HgN/A
3:50 PM46 °FOvercast.50 mph93%29.86 "HgN/A
3:20 PM46 °FOvercast.48 mph93%29.86 "HgN/A
2:50 PM46 °FSprinkles. Overcast.50 mph93%29.86 "Hg4 mi
2:20 PM46 °FOvercast.48 mph93%29.86 "HgN/A
1:50 PM45 °FLight rain. Overcast.48 mph100%29.86 "Hg6 mi
1:20 PM45 °FLight rain. Low clouds.46 mph100%29.89 "Hg5 mi
12:50 PM45 °FLight rain. Fog.45 mph100%29.89 "Hg1 mi
12:20 PM45 °FLight rain. Fog.43 mph100%29.92 "Hg2 mi
11:50 AM45 °FSprinkles. Fog.43 mph100%29.92 "Hg2 mi
11:20 AM45 °FSprinkles. Low clouds.40 mph100%29.92 "Hg3 mi
10:50 AM46 °FLight rain. Low clouds.40 mph93%29.92 "HgN/A
10:20 AM45 °FSprinkles. Low clouds.41 mph100%29.95 "HgN/A
9:50 AM45 °FSprinkles. Low clouds.41 mph100%29.95 "Hg5 mi
9:20 AM45 °FLight rain. Partly sunny.41 mph100%29.95 "Hg4 mi
8:50 AM45 °FSprinkles. Fog.41 mph100%29.95 "Hg2 mi
8:20 AM45 °FLight rain. Fog.43 mph93%29.95 "Hg2 mi
7:50 AM45 °FLight rain. Fog.43 mph93%29.98 "Hg2 mi
7:20 AM43 °FLight rain. Fog.46 mph100%29.98 "Hg1 mi
6:50 AM43 °FLight rain. Fog.45 mph93%29.98 "Hg2 mi
6:20 AM43 °FLight rain. Passing clouds.44 mph93%30.01 "Hg4 mi
5:50 AM43 °FLight rain. Overcast.44 mph87%30.04 "HgN/A
5:20 AM41 °FLight rain. Overcast.39 mph93%30.07 "Hg4 mi
Weather by CustomWeather, © 2015

See weather overviewHow to use our weather pages